User: anonymous   Login
Location: Unspecified
(0.0000°N, 0.0000°E)
Time: 22:14:12
(UTC+00:00)
Language:

SWISSCUBE - Orbit

View from above orbital plane
View from above orbital plane
View from above satellite
View from above satellite

Ground track
Ground track

The orbit data is extracted from the following two-line orbital elements,

1 35932U 09051B   16180.06443898  .00000174  00000-0  50510-4 0  9992
2 35932  98.4496 307.2781 0006444 257.0420 103.0058 14.55829867358794
Epoch (UTC): 28 June 2016 01:32:47
Eccentricity: 0.0006444
inclination: 98.4496°
perigee height: 702 km
apogee height: 711 km
right ascension of ascending node: 307.2781°
argument of perigee: 257.0420°
revolutions per day: 14.55829867
mean anomaly at epoch: 103.0058°
orbit number at epoch: 35879

The dashed part of the orbit path shows where the satellite is in the earth's shadow,  

DLR